Location: Whispering Pines Observatory
(39.4020°N, 104.7430°W)
Time: 19:29:00
(UTC-06:00)

MOS 1 Rocket - Visible Passes

Search period start: 31 July 2015 00:00
Search period end: 10 August 2015 00:00
Orbit: 616 x 831 km, 97.4° (Epoch: 31 July)

Date Brightness Start Highest point End Pass type
(mag) Time Alt. Az. Time Alt. Az. Time Alt. Az.
01 Aug 6.4 21:22:20 10° WSW 21:24:34 12° W 21:26:32 10° WNW visible
03 Aug 6.4 21:23:14 10° WSW 21:25:23 12° W 21:27:15 10° WNW visible
04 Aug 5.2 20:31:21 10° SSW 20:36:00 36° W 20:40:51 10° NNW visible
05 Aug 6.5 21:24:10 10° WSW 21:26:13 12° W 21:27:56 10° WNW visible
06 Aug 5.3 20:32:08 10° SSW 20:36:49 35° W 20:41:40 10° NNW visible
07 Aug 6.5 21:25:06 10° WSW 21:27:02 12° W 21:28:37 10° WNW visible
08 Aug 5.4 20:32:56 10° SSW 20:37:38 34° W 20:42:29 10° NNW visible
09 Aug 6.6 21:26:05 10° WSW 21:27:52 11° W 21:29:17 10° WNW visible
